Regional Weather Roundup
Issued by NWS Mobile, AL

Home | Current Version | Previous Version | Text Only | Print | Product List | Glossary On
Versions: 1 2 3 4 5 6 7 8 9 10 11 12 13 14 15 16 17 18 19 20 21 22 23 24 25 26 27 28 29 30 31 32 33 34 35 36 37 38 39 40 41 42 43 44 45 46 47 48 49 50
000
ASUS44 KMOB 270510
RWRMOB
REGIONAL WEATHER ROUNDUP
NATIONAL WEATHER SERVICE MOBILE AL
1100 PM CST WED NOV 26 2014

NOTE: "FAIR" INDICATES FEW OR NO CLOUDS BELOW 12,000 FEET WITH NO
      SIGNIFICANT WEATHER AND/OR OBSTRUCTIONS TO VISIBILITY.

  * THESE STATIONS ARE PART OF THE UNIVERSITY OF SOUTH ALABAMA
    MESONET AND ARE NOT UNDER NWS OR FAA QUALITY CONTROL.

ALZ061>064-270600-
COASTAL ALABAMA

CITY           SKY/WX    TMP DP  RH WIND       PRES   REMARKS
MOBILE REG APT CLEAR     54  44  69 W7        30.22R
BROOKLEY FIELD CLEAR     57  45  64 W6        30.23R
USA CAMPUS*      N/A     52  45  76 CALM      30.23R
DOG RIVER*     NOT AVBL


CITY           SKY/WX    TMP DP  RH WIND       PRES   REMARKS
MOUNT VERNON*    N/A     52  41  66 W3        30.20S
SARALAND*      NOT AVBL
BAY MINETTE*   NOT AVBL
LOXLEY*          N/A     54  46  76 SW6       30.22R
ROBERTSDALE*     N/A     54  46  76 CALM      30.21R
FAIRHOPE*        N/A     55  46  71 W12       30.21R
ELBERTA*         N/A     59  48  67 SW7       30.21S
FOLEY*           N/A     43  39  87 CALM      30.16F
GRAND BAY*       N/A     55  46  71 SW3       30.20R
DAUPHIN ISLND* NOT AVBL
BON SCOUR NWR* NOT AVBL
GULF SHORES    CLEAR     59  49  68 W15G22    30.22S

$$

ALZ051>060-270600-
INTERIOR SOUTHWEST AND SOUTH CENTRAL ALABAMA

CITY           SKY/WX    TMP DP  RH WIND       PRES   REMARKS
GREENVILLE     CLEAR     50  37  61 W9        30.17R
EVERGREEN      CLEAR     52  40  63 SW9       30.17S
CASTLEBERRY*   NOT AVBL
ATMORE*          N/A     52  43  71 SW6       30.21R
DIXIE*           N/A     50  41  71 SW3       30.15F
ANDALUSIA/OPP  CLEAR     50  37  61 W5        30.17F
ANDALUSIA*       N/A     48  39  71 SW9       30.16F
FLORALA APT    CLEAR     49  40  71 SW7       30.20F
FLORALA*         N/A     43  39  87 CALM      30.16F

$$

FLZ001>006-270600-
WESTERN FLORIDA PANHANDLE

CITY           SKY/WX    TMP DP  RH WIND       PRES   REMARKS
PENSACOLA      CLEAR     54  45  71 W8        30.21S
NAS PENSACOLA  CLEAR     59  47  64 W8        30.21S
MILTON         CLEAR     51  43  74 SW8       30.20F
WHTNG S FIELD  CLEAR     55  43  63 VRB5      30.21S


CITY           SKY/WX    TMP DP  RH WIND       PRES   REMARKS
WALNUT HILL*   NOT AVBL
JAY*             N/A     50  43  76 SW9       30.20S
CRESTVIEW      CLEAR     42  39  89 SW5       30.21F
VALPARAISO     CLEAR     56  46  69 W8        30.21S
DESTIN         CLEAR     63  47  55 W12G22    30.21S

$$

MSZ076-079-270600-
INTERIOR SOUTHEAST MISSISSIPPI

CITY           SKY/WX    TMP DP  RH WIND       PRES   REMARKS
LEAKESVILLE*     N/A     46  39  76 CALM      30.22R
AGRICOLA*      NOT AVBL

$$

MARINE OBSERVATIONS

STATION/POSITION TIME  TEMP    WIND        PRES    WAVE
                       AIR SEA DIR/SP/G            HT/PER
                 (UTC) (F)     (DEG/KT/KT) (MB)    (FT/S)
PASCAGOULA       0500   58     270/  9/ 12 1023.3R
PETIT BOIS ISLND 0500   62     250/ 22/ 26 1023.8S
GRAND BAY        0400   59     270/ 13     1023.0S
KATRINA CUT      0400   60     260/ 20     1023.7R
CEDAR POINT      0400   59     260/ 17     1023.7R
E DAUPHIN ISLAND 0357   63     250/ 11/ 17 1023.4R
MIDDLE BAY LIGHT 0400   59     260/ 16     1022.0S
USCG MOBILE BAY  0500   56 60  260/  7/  8 1022.0F
STATE DOCKS      0500   57 59              1022.7S
MEAHER PARK      0400   58     250/ 11     1023.4R
WEEKS BAY        0400   59                   N/A
FORT MORGAN      0500   63     280/ 27/ 30 1022.7S
12 S ORANGE BCH  0500   65 67  260/ 23/ 29 1022.6R   6/ 6
PENSACOLA BAY    0500   59 61  280/  5/ 10 1023.3F
64 S DAUPHIN ISL 0432   66 70  270/ 23/ 27 1025.3F   5/ 5
67 S FORT MORGAN 0400   65     260/ 23     1024.7R

$$

SELECTED LOCATIONS ACROSS THE REGION

CITY           SKY/WX    TMP DP  RH WIND       PRES   REMARKS
NEW ORLEANS    CLEAR     56  48  74 W13       30.27R
GULFPORT       CLEAR     55  45  68 W7        30.23R
PASCAGOULA AP  CLEAR     54  47  77 W5        30.23R
PASCAGOULA*      N/A     57  48  72 S2        30.23R
HATTIESBURG    CLEAR     52  39  61 W3        30.24R
LAUREL         CLEAR     52  37  58 NW6       30.24R
MERIDIAN       CLEAR     40  34  79 S5        30.22R
JACKSON        CLEAR     51  32  48 NW9       30.23R
MONTGOMERY     CLEAR     52  34  50 W8        30.17R
TROY           CLEAR     47  36  65 SW6       30.15S
KINSTON*       NOT AVBL
GENEVA*          N/A     45  39  81 CALM      30.21F
ASHFORD*         N/A     48  39  71 SW9       30.16F
DOTHAN         CLEAR     48  37  65 SW8       30.20F
PANAMA CITY    CLEAR     44  40  85 CALM      30.20S

$$



USA.gov is the U.S. government's official web portal to all federal, state and local government web resources and services.